Flag for U.S.A. Weather past 2 weeks in Hayward, California, U.S.A.

Now
66 °F

Overcast.


Feels Like: 66 °F
Forecast: 64 / 76 °F
Wind: No wind

Location: Hayward Air Terminal

Current Time: Sep 19, 2014 at 5:17:33 AM

Latest Report: Sep 19, 2014 at 4:54 AM


Visibility: 10 mi

Pressure: 29.92 "Hg

Humidity: 90%

Dew point: 63 °F

Location of HaywardLocation

Historic Weather in Hayward — Graph

°F

Hayward temperature yesterday

Maximum temperature yesterday: 80 °F (at 3:54 PM)
Minimum temperature yesterday: 67 °F (at 11:54 PM)
Average temperature yesterday: 74 °F

Past Weeks' High & Low Weather Summary

 TemperatureHumidityPressure
High86 °F (Sep 10, 3:54 PM)100% (Sep 11, 6:54 AM)30.03 "Hg (Sep 11, 6:54 AM)
Low58 °F (Sep 10, 5:54 AM)36% (Sep 10, 2:54 PM)29.74 "Hg (Sep 4, 5:54 AM)
Average68 °F73%29.89 "Hg
* Reported Sep 4 3:54 AM — Sep 19 3:54 AM, Hayward, Weather by CustomWeather, © 2014

Note: Actual official high and low records may vary slightly from our data, if they occured in-between our weather recording intervals... More about our weather records

Advertising

Hayward weather history for previous 24 hours

 ConditionsComfort  
Time TempWeatherWind HumidityBarometerVisibility
3:54 AM
Sep 19
66 °FOvercast.No wind90%29.93 "Hg10 mi
3:01 AM66 °FPassing clouds.No wind94%29.90 "Hg10 mi
2:54 AM66 °FPassing clouds.3 mph90%29.92 "Hg10 mi
1:54 AM66 °FOvercast.5 mph87%29.92 "Hg10 mi
12:54 AM66 °FPassing clouds.3 mph87%29.91 "Hg10 mi
11:54 PM
Sep 18
67 °FClear.No wind90%29.92 "Hg10 mi
10:54 PM68 °FClear.3 mph90%29.91 "Hg10 mi
9:54 PM69 °FClear.5 mph84%29.90 "Hg10 mi
8:54 PM70 °FClear.5 mph81%29.90 "Hg10 mi
7:54 PM70 °FSunny.9 mph84%29.88 "Hg10 mi
6:54 PM71 °FSunny.13 mph81%29.87 "Hg10 mi
5:54 PM76 °FSunny.16 mph69%29.85 "Hg10 mi
4:54 PM79 °FSunny.12 mph52%29.85 "Hg10 mi
3:54 PM80 °FSunny.10 mph52%29.85 "Hg10 mi
2:54 PM78 °FPartly sunny.9 mph58%29.87 "Hg10 mi
1:54 PM79 °FPassing clouds.13 mph56%29.88 "Hg10 mi
12:54 PM78 °FPartly sunny.12 mph60%29.90 "Hg10 mi
11:54 AM77 °FOvercast.7 mph60%29.90 "Hg10 mi
10:54 AM76 °FBroken clouds.8 mph58%29.89 "Hg10 mi
9:54 AM75 °FMostly cloudy.3 mph69%29.89 "Hg10 mi
8:54 AM72 °FMostly cloudy.3 mph81%29.88 "Hg10 mi
7:54 AM71 °FPartly sunny.5 mph84%29.86 "Hg10 mi
6:54 AM71 °FPassing clouds.9 mph84%29.83 "Hg10 mi
5:54 AM73 °FMostly cloudy.5 mph76%29.82 "Hg10 mi
Weather by CustomWeather, © 2014

See weather overviewHow to use our weather pages